Home   Weather   Bursa   Past weeks

Flag for Turkey Past Weather in Bursa, Turkey — Yesterday and Last 2 Weeks

Now
29 °F

Clear.


Feels Like: 29 °F
Forecast: 26 / 48 °F
Wind: 1 mph from East

Location: Bursa

Current Time: Dec 5, 2016 at 5:31:40 am

Latest Report: Dec 5, 2016 at 4:00 am


Visibility: 6 mi

Pressure: 30.48 "Hg

Humidity: 93%

Dew Point: 27 °F

Location of BursaLocation

Past Weather in Bursa — Graph

°F

Bursa Temperature Yesterday

Maximum temperature yesterday: 50 °F (at 2:00 pm)
Minimum temperature yesterday: 29 °F (at 8:00 am)
Average temperature yesterday: 38 °F

High & Low Weather Summary for the Past Weeks

 TemperatureHumidityPressure
High65 °F (Nov 27, 3:00 pm)100% (Nov 21, 2:00 am)30.48 "Hg (Nov 21, 2:00 am)
Low29 °F (Dec 2, 9:00 am)31% (Nov 20, 3:00 pm)29.81 "Hg (Nov 28, 6:00 pm)
Average45 °F79%30.17 "Hg
* Reported Nov 20 4:00 am — Dec 5 4:00 am, Bursa, Weather by CustomWeather, © 2016

Note: Actual official high and low records may vary slightly from our data, if they occured in-between our weather recording intervals... More about our weather records

Advertising

Bursa Weather History for the Previous 24 Hours

Scroll right to see more
 ConditionsComfort  
Time TempWeatherWind HumidityBarometerVisibility
4:00 am
Mon, Dec 5
29 °FClear.1 mph93%30.48 "Hg6 mi
3:00 am30 °FClear.1 mph92%30.46 "Hg6 mi
2:00 am31 °FClear.1 mph89%30.46 "Hg6 mi
1:00 am32 °FClear.1 mph86%30.45 "Hg6 mi
12:00 am33 °FClear.1 mph85%30.45 "Hg6 mi
11:00 pm
Sun, Dec 4
32 °FClear.No wind86%30.45 "Hg6 mi
10:00 pm33 °FClear.No wind83%30.44 "Hg6 mi
9:00 pm35 °FClear.No wind77%30.44 "Hg6 mi
8:00 pm37 °FClear.2 mph71%30.43 "Hg6 mi
7:00 pm40 °FClear.1 mph61%30.42 "Hg6 mi
6:00 pm44 °FPassing clouds.3 mph58%30.41 "Hg6 mi
5:00 pm48 °FScattered clouds.3 mph51%30.40 "Hg7 mi
4:00 pm50 °FScattered clouds.5 mph47%30.40 "Hg7 mi
3:00 pm50 °FPartly sunny.6 mph47%30.40 "Hg7 mi
2:00 pm50 °FPartly sunny.7 mph47%30.40 "Hg7 mi
1:00 pm48 °FPartly sunny.7 mph54%30.41 "Hg7 mi
12:00 pm46 °FPartly sunny.5 mph63%30.42 "Hg7 mi
11:00 am43 °FScattered clouds.6 mph70%30.43 "Hg9 mi
10:00 am38 °FSunny.3 mph80%30.43 "Hg7 mi
9:00 am29 °FSunny.1 mph96%30.42 "Hg7 mi
8:00 am29 °FClear.1 mph97%30.41 "Hg7 mi
7:00 am30 °FClear.1 mph96%30.40 "Hg6 mi
6:00 am29 °FClear.2 mph96%30.39 "Hg6 mi
5:00 am31 °FClear.1 mph93%30.37 "Hg6 mi
Weather by CustomWeather, © 2016

See weather overviewHow to use our weather pages